CW6532 Weather Reports


Display with metric or nautical units.
time (UTC)temp
F
wind
direction
speed
MPH
gust
MPH
rain 1hr
in
rain 24hr
in
rain mn
in
humidity
%
barometer
mb
20260509214353 95 309 6.0 16.0 0.00 0.00 0.00 10 1019.8
20260509213347 95 335 4.0 14.0 0.00 0.00 0.00 10 1020.2
20260509212333 95 323 8.0 16.0 0.00 0.00 0.00 10 1020.2
20260509211325 95 303 6.0 12.0 0.00 0.00 0.00 10 1020.2
20260509210337 94 264 7.0 18.0 0.00 0.00 0.00 10 1020.4
20260509205325 94 267 7.0 13.0 0.00 0.00 0.00 11 1020.7
20260509204334 94 338 2.0 15.0 0.00 0.00 0.00 11 1020.7
20260509203327 94 346 5.0 16.0 0.00 0.00 0.00 11 1020.9
20260509202336 93 300 6.0 12.0 0.00 0.00 0.00 11 1021.0
20260509201344 93 258 7.0 15.0 0.00 0.00 0.00 11 1021.2
20260509200339 93 302 7.0 15.0 0.00 0.00 0.00 11 1021.4
20260509195348 93 308 3.0 12.0 0.00 0.00 0.00 11 1021.4
20260509194336 93 259 6.0 11.0 0.00 0.00 0.00 12 1021.5
20260509193325 92 278 9.0 14.0 0.00 0.00 0.00 12 1021.6
20260509192334 91 288 6.0 14.0 0.00 0.00 0.00 13 1021.7
20260509191359 90 291 6.0 13.0 0.00 0.00 0.00 13 1021.8
20260509190329 91 321 7.0 15.0 0.00 0.00 0.00 13 1021.8
20260509185335 90 350 2.0 12.0 0.00 0.00 0.00 14 1021.9
20260509184324 90 281 5.0 11.0 0.00 0.00 0.00 14 1022.0
20260509183342 89 253 5.0 11.0 0.00 0.00 0.00 14 1022.2
20260509182330 88 300 5.0 11.0 0.00 0.00 0.00 15 1022.3
20260509181338 88 338 2.0 11.0 0.00 0.00 0.00 14 1022.6
20260509180328 88 253 5.0 9.0 0.00 0.00 0.00 15 1022.6
20260509175335 87 296 3.0 8.0 0.00 0.00 0.00 15 1022.7
20260509174403 87 228 7.0 10.0 0.00 0.00 0.00 15 1022.8
20260509173332 87 306 4.0 10.0 0.00 0.00 0.00 15 1022.9
20260509172339 86 251 8.0 12.0 0.00 0.00 0.00 16 1023.0
20260509171323 85 300 2.0 12.0 0.00 0.00 0.00 16 1023.0
20260509170329 85 266 4.0 11.0 0.00 0.00 0.00 16 1023.1
20260509165334 84 211 4.0 13.0 0.00 0.00 0.00 16 1023.0
20260509164341 85 307 3.0 9.0 0.00 0.00 0.00 16 1023.0
20260509163332 85 304 4.0 10.0 0.00 0.00 0.00 17 1022.9
20260509162337 84 264 4.0 9.0 0.00 0.00 0.00 17 1023.0
20260509161340 83 258 3.0 9.0 0.00 0.00 0.00 17 1023.0
20260509160325 82 261 5.0 9.0 0.00 0.00 0.00 17 1022.9
20260509155330 81 257 3.0 8.0 0.00 0.00 0.00 19 1022.9
20260509154335 80 259 8.0 10.0 0.00 0.00 0.00 19 1022.9
20260509153327 80 257 5.0 8.0 0.00 0.00 0.00 19 1022.9
20260509152330 81 254 2.0 7.0 0.00 0.00 0.00 19 1022.9
20260509151334 81 269 2.0 3.0 0.00 0.00 0.00 20 1023.0
20260509150340 80 269 0.0 3.0 0.00 0.00 0.00 20 1022.8
20260509145344 79 299 0.0 1.0 0.00 0.00 0.00 21 1023.0
20260509144352 77 247 1.0 3.0 0.00 0.00 0.00 22 1022.9
20260509143323 76 247 3.0 5.0 0.00 0.00 0.00 23 1022.9
20260509142329 75 247 2.0 5.0 0.00 0.00 0.00 25 1022.8
20260509141335 76 244 4.0 5.0 0.00 0.00 0.00 26 1022.8
20260509140323 77 88 1.0 2.0 0.00 0.00 0.00 22 1022.8
20260509135329 77 88 0.0 1.0 0.00 0.00 0.00 22 1022.7
20260509134336 77 86 0.0 1.0 0.00 0.00 0.00 22 1022.6
20260509133324 76 86 0.0 1.0 0.00 0.00 0.00 22 1022.3
20260509132356 75 86 0.0 2.0 0.00 0.00 0.00 24 1022.3
20260509131339 74 86 0.0 2.0 0.00 0.00 0.00 24 1022.2
20260509130345 73 86 2.0 3.0 0.00 0.00 0.00 24 1022.1
20260509125323 72 86 1.0 2.0 0.00 0.00 0.00 25 1022.2
20260509124327 72 86 1.0 2.0 0.00 0.00 0.00 25 1022.0
20260509123321 72 86 2.0 3.0 0.00 0.00 0.00 24 1021.9
20260509122326 73 86 2.0 3.0 0.00 0.00 0.00 24 1021.7
20260509121331 73 78 3.0 4.0 0.00 0.00 0.00 24 1021.6
20260509120337 72 136 3.0 4.0 0.00 0.00 0.00 24 1021.6
20260509115321 71 136 3.0 4.0 0.00 0.00 0.00 25 1021.5
20260509114407 70 136 2.0 3.0 0.00 0.00 0.00 25 1021.5
20260509113340 71 136 2.0 4.0 0.00 0.00 0.00 25 1021.6
20260509112327 70 136 3.0 4.0 0.00 0.00 0.00 26 1021.5
20260509111351 70 136 4.0 7.0 0.00 0.00 0.00 27 1021.4
20260509110338 71 136 4.0 5.0 0.00 0.00 0.00 26 1021.4
20260509105325 75 186 2.0 5.0 0.00 0.00 0.00 23 1021.4
20260509104332 75 193 3.0 5.0 0.00 0.00 0.00 22 1021.4
20260509103350 76 193 4.0 4.0 0.00 0.00 0.00 21 1021.4
20260509102322 75 193 3.0 5.0 0.00 0.00 0.00 21 1021.5
20260509101330 75 179 4.0 5.0 0.00 0.00 0.00 21 1021.5
20260509100321 74 183 4.0 5.0 0.00 0.00 0.00 21 1021.5
20260509095328 75 186 4.0 7.0 0.00 0.00 0.00 21 1021.5
20260509094335 74 184 4.0 5.0 0.00 0.00 0.00 21 1021.6
20260509093329 74 182 3.0 5.0 0.00 0.00 0.00 22 1021.6
20260509092320 75 184 4.0 5.0 0.00 0.00 0.00 21 1021.6
20260509091332 75 188 3.0 5.0 0.00 0.00 0.00 20 1021.6
20260509090326 76 188 3.0 6.0 0.00 0.00 0.00 20 1021.7
20260509085333 75 171 5.0 6.0 0.00 0.00 0.00 20 1021.7
20260509084320 75 170 5.0 6.0 0.00 0.00 0.00 20 1021.8
20260509083337 76 170 3.0 6.0 0.00 0.00 0.00 20 1021.8
20260509082326 75 167 5.0 6.0 0.00 0.00 0.00 19 1021.7
20260509081351 75 169 4.0 6.0 0.00 0.00 0.00 20 1021.8
20260509080336 74 163 4.0 6.0 0.00 0.00 0.00 20 1021.8
20260509075320 75 170 5.0 7.0 0.00 0.00 0.00 19 1021.8
20260509074346 75 204 6.0 9.0 0.00 0.00 0.00 19 1021.8
20260509073339 76 217 6.0 9.0 0.00 0.00 0.00 19 1021.8
20260509072328 76 217 6.0 9.0 0.00 0.00 0.00 18 1021.7
20260509071357 76 193 6.0 10.0 0.00 0.00 0.00 18 1021.7
20260509070325 75 198 6.0 10.0 0.00 0.00 0.00 18 1021.7
20260509065355 76 230 8.0 10.0 0.00 0.00 0.00 19 1021.7
20260509064401 78 210 6.0 9.0 0.00 0.00 0.00 17 1021.5
20260509063333 78 202 5.0 7.0 0.00 0.00 0.00 17 1021.4
20260509062338 78 202 6.0 8.0 0.00 0.00 0.00 17 1021.4
20260509061326 78 217 5.0 8.0 0.00 0.00 0.00 17 1021.4
20260509060336 78 190 6.0 8.0 0.00 0.00 0.00 20 1021.4
20260509055345 78 204 6.0 8.0 0.00 0.00 0.00 17 1021.2
20260509054350 78 206 7.0 7.0 0.00 0.00 0.00 17 1021.3
20260509053344 80 215 5.0 6.0 0.00 0.00 0.00 16 1021.4
20260509052322 80 62 2.0 3.0 0.00 0.00 0.00 16 1021.3
20260509051347 80 63 0.0 1.0 0.00 0.00 0.00 16 1021.3
20260509050359 80 62 0.0 1.0 0.00 0.00 0.00 16 1021.2
20260509045322 80 62 0.0 0.0 0.00 0.00 0.00 16 1021.2
20260509044333 80 62 0.0 0.0 0.00 0.00 0.00 16 1021.2
20260509043326 80 63 0.0 3.0 0.00 0.00 0.00 16 1021.1
20260509042335 80 63 3.0 4.0 0.00 0.00 0.00 16 1021.1
20260509041401 81 20 2.0 3.0 0.00 0.00 0.00 16 1021.1
20260509040326 81 323 3.0 6.0 0.00 0.00 0.00 15 1020.8
20260509035335 82 296 3.0 8.0 0.00 0.00 0.00 15 1020.8
20260509034324 82 315 5.0 10.0 0.00 0.00 0.00 15 1020.7
20260509033343 83 313 5.0 10.0 0.00 0.00 0.00 15 1020.6
20260509032320 83 321 5.0 9.0 0.00 0.00 0.00 14 1020.6
20260509031325 83 282 4.0 10.0 0.00 0.00 0.00 14 1020.5
20260509030334 83 315 4.0 8.0 0.00 0.00 0.00 14 1020.3
20260509025342 83 310 4.0 9.0 0.00 0.00 0.00 14 1020.3
20260509024327 84 299 5.0 9.0 0.00 0.00 0.00 14 1020.1
20260509023320 84 316 5.0 10.0 0.00 0.00 0.00 13 1020.0
20260509022355 85 309 6.0 10.0 0.00 0.00 0.00 13 1019.9
20260509021323 85 298 6.0 12.0 0.00 0.00 0.00 12 1019.8
20260509020333 86 292 8.0 13.0 0.00 0.00 0.00 12 1019.8
20260509015342 87 304 11.0 17.0 0.00 0.00 0.00 12 1019.6
20260509014333 87 306 8.0 14.0 0.00 0.00 0.00 12 1019.5
20260509013330 88 315 8.0 16.0 0.00 0.00 0.00 11 1019.5
20260509012322 88 314 10.0 15.0 0.00 0.00 0.00 11 1019.5
20260509011329 89 338 10.0 15.0 0.00 0.00 0.00 11 1019.5
20260509010320 89 336 11.0 20.0 0.00 0.00 0.00 11 1019.4
20260509005331 90 283 9.0 15.0 0.00 0.00 0.00 11 1019.5
20260509004323 90 309 8.0 15.0 0.00 0.00 0.00 11 1019.4
20260509003344 89 290 11.0 19.0 0.00 0.00 0.00 11 1019.4
20260509002326 89 315 11.0 19.0 0.00 0.00 0.00 11 1019.4
20260509001352 90 308 14.0 20.0 0.00 0.00 0.00 11 1019.4
20260509000337 90 300 10.0 20.0 0.00 0.00 0.00 11 1019.6
20260508235321 90 317 9.0 20.0 0.00 0.00 0.00 11 1019.5
20260508234325 90 330 13.0 24.0 0.00 0.00 0.00 13 1019.5
20260508233345 90 308 13.0 20.0 0.00 0.00 0.00 11 1019.6
20260508232400 90 346 12.0 21.0 0.00 0.00 0.00 11 1019.7
20260508231322 91 250 9.0 19.0 0.00 0.00 0.00 11 1019.8
20260508230329 90 213 12.0 20.0 0.00 0.00 0.00 11 1019.9
20260508225334 90 317 12.0 20.0 0.00 0.00 0.00 12 1020.1
20260508224339 91 289 12.0 18.0 0.00 0.00 0.00 11 1020.2
20260508223336 91 326 11.0 21.0 0.00 0.00 0.00 12 1020.3
20260508222344 91 295 10.0 21.0 0.00 0.00 0.00 11 1020.4
20260508221332 90 275 7.0 20.0 0.00 0.00 0.00 12 1020.6
20260508220344 90 268 13.0 21.0 0.00 0.00 0.00 12 1020.6
20260508215329 90 295 10.0 19.0 0.00 0.00 0.00 12 1020.7